Location: Tucson
(32.2217°N, 110.9265°W)
Time: 13:38:21
(UTC-07:00)

A-11 Canister half - Pass Details

Date: 29 October 2021
Orbit: 1516 x 1684 km, 47.2° (Epoch: 04 December)

Event Time Altitude Azimuth Distance (km) Brightness Sun altitude
Rises 17:39:55 0° 257° (WSW) 4,929 15.5 -1.7°
Reaches altitude 10° 17:43:17 10° 263° (W) 3,941 13.2 -2.3°
Maximum altitude 17:53:00 48° 336° (NNW) 2,079 9.8 -4.3°
Drops below altitude 10° 18:02:33 10° 49° (NE) 3,873 10.6 -6.3°
Enters shadow 18:04:43 - 53° (NE) 4,504 10.9 -6.8°
